Regional Weather Roundup
Issued by NWS

Home | Current Version | Previous Version | Text Only | Print | Product List | Glossary On
Versions: 1 2 3 4 5 6 7 8 9 10 11 12 13 14 15 16 17 18 19 20 21 22 23 24 25 26 27 28 29 30 31 32 33 34 35 36 37 38 39 40 41 42 43 44 45 46 47 48 49 50
434
ASUS43 KMKX 301400
RWRWI

WISCONSIN REGIONAL WEATHER ROUNDUP
NATIONAL WEATHER SERVICE MILWAUKEE/SULLIVAN WI
900 AM CDT SAT JUL 30 2016

NOTE: "FAIR" INDICATES FEW OR NO CLOUDS BELOW 12,000 FEET WITH NO
SIGNIFICANT WEATHER AND/OR OBSTRUCTIONS TO VISIBILITY.

WIZ001-002-006>008-014>016-023>028-301500-
NORTHWEST WISCONSIN

CITY           SKY/WX    TMP DP  RH WIND       PRES   REMARKS
SUPERIOR ARPT  CLOUDY    61  60  99 CALM      30.07S
ASHLAND        CLOUDY    68  60  75 VRB3      30.08S
HAYWARD        SUNNY     69  58  67 S5        30.08S
SIREN          CLOUDY    66  61  82 S3        30.07R
CUMBERLAND     MOSUNNY   64  59  82 CALM      30.08S
RICE LAKE      PTSUNNY   67  59  73 E3        30.09S
CHETEK         SUNNY     66  59  78 E3        30.07S
LADYSMITH      SUNNY     67  56  67 E5        30.10R
EAU CLAIRE     NOT AVBL
MENOMONIE      SUNNY     67  64  87 E3        30.06S
NEW RICHMOND   PTSUNNY   68  63  84 SE5       30.05F
OSCEOLA        CLOUDY    67  67 100 E5        30.08S
$$

WIZ003>005-009-010-017-018-301500-
NORTH CENTRAL WISCONSIN

CITY           SKY/WX    TMP DP  RH WIND       PRES   REMARKS
MANITOWISH WTR CLOUDY    64  57  79 CALM      30.11S
ARBOR VITAE    SUNNY     67  57  71 SE5       30.11S
WOODRUFF       SUNNY     67  57  71 SE5       30.11S
RHINELANDER    SUNNY     66  57  72 E7        30.11F
EAGLE RIVER    SUNNY     66  54  66 SE5       30.11S
LAND O LAKES   SUNNY     67  55  65 SE5       30.13S
PHILLIPS       SUNNY     66  58  76 SE5       30.09F
TOMAHAWK       SUNNY     64  57  80 E3        30.11S
MEDFORD        SUNNY     64  60  86 E7        30.08F
MERRILL        SUNNY     64  60  85 E5        30.10S
$$

WIZ029-030-035-036-043>047-301500-
CENTRAL WISCONSIN

CITY           SKY/WX    TMP DP  RH WIND       PRES   REMARKS
WAUSAU         SUNNY     66  59  78 SE7       30.07S
MOSINEE        MOSUNNY   66  61  82 NE7       30.09S
MARSHFIELD     CLOUDY    66  58  75 E8        30.07S
STEVENS POINT  CLOUDY    63  58  84 NE3       30.08R
WAUPACA        CLOUDY    66  62  87 CALM      30.08R
WAUTOMA        CLOUDY    66  61  84 NE6       30.06S
WISC RAPIDS    MOSUNNY   68  58  70 E6        30.07S
CAMP DOUGLAS   NOT AVBL
$$

WIZ011>013-019>022-031-037>040-048>050-301500-
NORTHEAST WISCONSIN

CITY           SKY/WX    TMP DP  RH WIND       PRES   REMARKS
ANTIGO         SUNNY     65  60  83 E7        30.10S
SHAWANO        MOSUNNY   68  61  77 NE6       30.08S
OCONTO         SUNNY     70  64  81 NE6       30.07S
STURGEON BAY   SUNNY     71  57  61 E9        30.08F
GREEN BAY      SUNNY     71  63  75 E9        30.06S
MANITOWOC      NOT AVBL
APPLETON       PTSUNNY   70  57  64 VRB6      30.05R
CLINTONVILLE   CLOUDY    64  59  82 NE6       30.07S
OSHKOSH        CLOUDY    69  60  73 NE12      30.05R
$$

WIZ032>034-041-042-053>061-301500-
SOUTHWEST WISCONSIN

CITY           SKY/WX    TMP DP  RH WIND       PRES   REMARKS
LA CROSSE      MOSUNNY   70  60  70 CALM      30.03S
SPARTA         MOSUNNY   69  60  74 E7        30.05S
VIROQUA        CLOUDY    68  61  79 E5        30.05R
BOSCOBEL       CLOUDY    68  65  90 CALM      30.03S
PRAIRIE DU CHI CLOUDY    67  60  79 CALM      30.02S
PLATTEVILLE    CLOUDY    68  66  92 E7        30.03R
$$

WIZ056-057-062-063-064-067-068-301500-
SOUTH CENTRAL WISCONSIN

CITY           SKY/WX    TMP DP  RH WIND       PRES   REMARKS
REEDSBURG      CLOUDY    65  61  86 CALM      30.04S
BARABOO/DELLS  CLOUDY    64  60  85 CALM      30.05R
LONE ROCK      NOT AVBL
MINERAL POINT  CLOUDY    68  63  83 NE3       30.04R
MADISON        CLOUDY    70  61  73 NE7       30.03R
MIDDLETON      CLOUDY    69  62  78 E5        30.04R
WATERTOWN      CLOUDY    68  64  86 E6        30.03R
MONROE         PTSUNNY   68  63  83 NE7       30.02R
JANESVILLE     CLOUDY    72  66  83 NE6       30.01R
$$

WIZ051-052-058>065-066-070>072-301500-
SOUTHEAST WISCONSIN

CITY           SKY/WX    TMP DP  RH WIND       PRES   REMARKS
MILWAUKEE      PTSUNNY   71  63  75 NE8       30.02R
WAUKESHA       PTSUNNY   68  61  77 NE9       30.03S
MILWAUKEE/TIMM NOT AVBL
RACINE         CLOUDY    71  64  78 NE9       30.03R
BURLINGTON     CLOUDY    69  64  85 NE6       30.01S
KENOSHA        MOSUNNY   73  64  73 NE9       30.01S
FOND DU LAC    CLOUDY    71  61  70 NE7       30.05R
SHEBOYGAN      CLOUDY    71  61  70 E13       30.05R
WEST BEND      CLOUDY    68  61  77 NE7       30.04R
JUNEAU         CLOUDY    66  61  83 NE8       30.05S
$$

LSZ147-162-301500-
LAKE SUPERIOR

STATION/POSITION TIME  TEMP    WIND        PRES    WAVE
                       AIR SEA DIR/SP/G            HT/PER
                 (UTC) (F)     (DEG/KT/KT) (MB)    (FT/S)
W MID LAKE BUOY  1250   63 61  100/  8/ 10 1017.8S   0
DEVILS ISLAND    1300   66     130/  2/  4 1018.2S
PORT WING        1300   58     280/  2/  3 1018.3S
SAXON HARBOR     1340   67      30/  1/  2 1018.3R
$$

LMZ867-665-643>646-301500-
LAKE MICHIGAN

STATION/POSITION TIME  TEMP    WIND        PRES    WAVE
                       AIR SEA DIR/SP/G            HT/PER
                 (UTC) (F)     (DEG/KT/KT) (MB)    (FT/S)
CHAMBERS ISLAND  1300   70      50/  8/ 10 1018.6R
S GREEN BAY BUOY 1300   69 71   70/ 12/ 14 1017.8
N MID LAKE BUOY  1250   69 69   80/ 10/ 12 1018.2R   1/ 3
NORTHPORT PIER   1300   70      90/  8/ 11 1018.6R
SISTER BAY       1321   76     110/ 10/ 13   N/A
ALGOMA LAKESHORE 1313           80/ 17/ 19   N/A
KEWAUNEE LAKESHO 1300   68      50/  5/  9 1017.3R
SHEBOYGAN LAKESH 1300   68      50/ 10/ 10 1017.2R
PORT WASHINGTON  1340   71      60/  4/  6 1017.6R
ATWATER BUOY     1300   64 60   60/  4/  6 1018.1R
MILWAUKEE LAKESH 1310   65      50/  5/  6   N/A
S MID LAKE BUOY  1250   68 73   80/ 14/ 17 1014.8R   3/ 4
KENOSHA   LAKESH 1300   70      70/  9/ 11 1015.6R
$$

TC  - TEMPERATURE IN CELSIUS
VSB - VISIBILITY IN STATUTE MILES
WCI - WIND CHILL INDEX
HX  - HEAT INDEX





USA.gov is the U.S. government's official web portal to all federal, state and local government web resources and services.